Time,TemperatureF,DewpointF,PressureIn,WindDirection,WindDirectionDegrees,WindSpeedMPH,WindSpeedGustMPH,Humidity,HourlyPrecipIn,Conditions,Clouds,dailyrainin,SoftwareType,DateUTC
2013-04-27 00:01:00,56.1,45.3,29.22,South,180,0.0,0.0,67,0.00,CLR,SKC,0.00,WeatherDisplay:10.37,2013-04-27 04:01:00,
2013-04-27 00:06:00,56.1,45.3,29.22,South,180,0.0,0.0,67,0.00,CLR,SKC,0.00,WeatherDisplay:10.37,2013-04-27 04:06:00,
2013-04-27 00:11:00,56.3,45.9,29.22,South,180,0.0,0.0,68,0.00,CLR,SKC,0.00,WeatherDisplay:10.37,2013-04-27 04:11:00,
2013-04-27 00:16:00,56.3,45.9,29.22,SW,225,0.0,0.0,68,0.00,CLR,SKC,0.00,WeatherDisplay:10.37,2013-04-27 04:16:00,
2013-04-27 00:21:00,56.3,45.5,29.23,North,0,0.0,0.0,67,0.00,CLR,SKC,0.00,WeatherDisplay:10.37,2013-04-27 04:21:00,
2013-04-27 00:26:00,56.3,45.9,29.23,SW,225,0.0,0.0,68,0.00,CLR,SKC,0.00,WeatherDisplay:10.37,2013-04-27 04:26:00,
2013-04-27 00:31:00,56.3,45.9,29.23,SW,225,0.0,0.0,68,0.00,CLR,SKC,0.00,WeatherDisplay:10.37,2013-04-27 04:31:00,
2013-04-27 00:36:00,56.3,45.9,29.23,SW,225,0.0,0.0,68,0.00,CLR,SKC,0.00,WeatherDisplay:10.37,2013-04-27 04:36:00,
2013-04-27 00:41:00,56.1,46.5,29.23,NE,45,0.0,0.0,70,0.00,CLR,SKC,0.00,WeatherDisplay:10.37,2013-04-27 04:41:00,
2013-04-27 00:46:00,55.9,47.0,29.23,SW,225,0.0,0.0,72,0.00,CLR,SKC,0.00,WeatherDisplay:10.37,2013-04-27 04:46:00,
2013-04-27 00:51:00,55.6,47.4,29.23,SW,225,1.1,0.0,74,0.00,CLR,SKC,0.00,WeatherDisplay:10.37,2013-04-27 04:51:00,
2013-04-27 00:56:00,55.4,46.9,29.22,SW,225,0.0,0.0,73,0.00,CLR,SKC,0.00,WeatherDisplay:10.37,2013-04-27 04:56:00,
2013-04-27 01:01:00,55.0,47.3,29.22,South,180,1.1,0.0,75,0.00,CLR,SKC,0.00,WeatherDisplay:10.37,2013-04-27 05:01:00,
2013-04-27 01:06:00,54.9,47.4,29.22,North,0,0.0,0.0,76,0.00,CLR,SKC,0.00,WeatherDisplay:10.37,2013-04-27 05:06:00,
2013-04-27 01:11:00,54.7,47.6,29.22,North,0,0.0,0.0,77,0.00,CLR,SKC,0.00,WeatherDisplay:10.37,2013-04-27 05:11:00,
2013-04-27 01:16:00,54.7,47.6,29.23,SW,225,1.1,0.0,77,0.00,CLR,SKC,0.00,WeatherDisplay:10.37,2013-04-27 05:16:00,
2013-04-27 01:21:00,54.7,48.0,29.23,SE,135,0.0,0.0,78,0.00,CLR,SKC,0.00,WeatherDisplay:10.37,2013-04-27 05:21:00,
2013-04-27 01:26:00,54.7,47.6,29.23,North,0,0.0,0.0,77,0.00,CLR,SKC,0.00,WeatherDisplay:10.37,2013-04-27 05:26:00,
2013-04-27 01:31:00,54.7,47.6,29.22,South,180,0.0,0.0,77,0.00,CLR,SKC,0.00,WeatherDisplay:10.37,2013-04-27 05:31:00,
2013-04-27 01:36:00,54.5,47.4,29.22,South,180,0.0,0.0,77,0.00,CLR,SKC,0.00,WeatherDisplay:10.37,2013-04-27 05:36:00,
2013-04-27 01:41:00,54.5,47.1,29.22,East,90,1.1,0.0,76,0.00,CLR,SKC,0.00,WeatherDisplay:10.37,2013-04-27 05:41:00,
2013-04-27 01:46:00,54.5,46.7,29.22,East,90,0.0,0.0,75,0.00,CLR,SKC,0.00,WeatherDisplay:10.37,2013-04-27 05:46:00,
2013-04-27 01:51:00,54.7,47.3,29.22,SW,225,0.0,0.0,76,0.00,CLR,SKC,0.00,WeatherDisplay:10.37,2013-04-27 05:51:00,
2013-04-27 01:56:00,54.7,46.9,29.22,NW,315,1.1,0.0,75,0.00,CLR,SKC,0.00,WeatherDisplay:10.37,2013-04-27 05:56:00,
2013-04-27 02:01:00,54.7,46.9,29.22,NW,315,0.0,0.0,75,0.00,CLR,SKC,0.00,WeatherDisplay:10.37,2013-04-27 06:01:00,
2013-04-27 02:06:00,54.7,46.9,29.22,NW,315,0.0,0.0,75,0.00,CLR,SKC,0.00,WeatherDisplay:10.37,2013-04-27 06:06:00,
2013-04-27 02:11:00,54.7,46.6,29.22,North,0,1.1,0.0,74,0.00,CLR,SKC,0.00,WeatherDisplay:10.37,2013-04-27 06:11:00,
2013-04-27 02:16:00,54.7,46.6,29.22,South,180,1.1,0.0,74,0.00,CLR,SKC,0.00,WeatherDisplay:10.37,2013-04-27 06:16:00,
2013-04-27 02:21:00,54.5,46.4,29.21,South,180,0.0,0.0,74,0.00,CLR,SKC,0.00,WeatherDisplay:10.37,2013-04-27 06:21:00,
2013-04-27 02:26:00,54.5,47.8,29.22,South,180,0.0,0.0,78,0.00,CLR,SKC,0.00,WeatherDisplay:10.37,2013-04-27 06:26:00,
2013-04-27 02:31:00,54.3,47.6,29.21,South,180,1.1,0.0,78,0.00,CLR,SKC,0.00,WeatherDisplay:10.37,2013-04-27 06:31:00,
2013-04-27 02:36:00,54.3,47.3,29.21,South,180,1.1,0.0,77,0.00,CLR,SKC,0.00,WeatherDisplay:10.37,2013-04-27 06:36:00,
2013-04-27 02:41:00,54.1,47.4,29.21,South,180,1.1,0.0,78,0.00,CLR,SKC,0.00,WeatherDisplay:10.37,2013-04-27 06:41:00,
2013-04-27 02:46:00,54.0,46.9,29.21,South,180,0.0,0.0,77,0.00,CLR,SKC,0.00,WeatherDisplay:10.37,2013-04-27 06:46:00,
2013-04-27 02:51:00,54.0,47.3,29.20,South,180,1.1,0.0,78,0.00,CLR,SKC,0.00,WeatherDisplay:10.37,2013-04-27 06:51:00,
2013-04-27 02:56:00,53.8,47.1,29.21,South,180,1.1,0.0,78,0.00,CLR,SKC,0.00,WeatherDisplay:10.37,2013-04-27 06:56:00,
2013-04-27 03:02:00,53.8,47.4,29.20,South,180,1.1,0.0,79,0.00,CLR,SKC,0.00,WeatherDisplay:10.37,2013-04-27 07:02:00,
2013-04-27 03:07:00,53.8,48.1,29.20,South,180,0.0,0.0,81,0.00,CLR,SKC,0.00,WeatherDisplay:10.37,2013-04-27 07:07:00,
2013-04-27 03:12:00,53.8,48.1,29.20,South,180,0.0,0.0,81,0.00,CLR,SKC,0.00,WeatherDisplay:10.37,2013-04-27 07:12:00,
2013-04-27 03:17:00,53.6,47.6,29.20,South,180,0.0,0.0,80,0.00,CLR,SKC,0.00,WeatherDisplay:10.37,2013-04-27 07:17:00,
2013-04-27 03:22:00,53.4,47.7,29.20,South,180,1.6,0.0,81,0.00,CLR,SKC,0.00,WeatherDisplay:10.37,2013-04-27 07:22:00,
2013-04-27 03:27:00,53.4,47.7,29.20,South,180,1.1,0.0,81,0.00,CLR,SKC,0.00,WeatherDisplay:10.37,2013-04-27 07:27:00,
2013-04-27 03:32:00,53.4,47.7,29.20,South,180,0.0,0.0,81,0.00,CLR,SKC,0.00,WeatherDisplay:10.37,2013-04-27 07:32:00,
2013-04-27 03:37:00,53.4,47.7,29.20,North,0,0.0,0.0,81,0.00,CLR,SKC,0.00,WeatherDisplay:10.37,2013-04-27 07:37:00,
2013-04-27 03:42:00,53.4,47.7,29.20,North,0,0.0,0.0,81,0.00,CLR,SKC,0.00,WeatherDisplay:10.37,2013-04-27 07:42:00,
2013-04-27 03:47:00,53.4,47.7,29.20,North,0,0.0,0.0,81,0.00,CLR,SKC,0.00,WeatherDisplay:10.37,2013-04-27 07:47:00,
2013-04-27 03:52:00,53.2,48.2,29.20,North,0,0.0,0.0,83,0.00,CLR,SKC,0.00,WeatherDisplay:10.37,2013-04-27 07:52:00,
2013-04-27 03:57:00,53.2,48.2,29.20,North,0,0.0,0.0,83,0.00,CLR,SKC,0.00,WeatherDisplay:10.37,2013-04-27 07:57:00,
2013-04-27 04:02:00,53.2,48.5,29.20,South,180,0.0,0.0,84,0.00,CLR,SKC,0.00,WeatherDisplay:10.37,2013-04-27 08:02:00,
2013-04-27 04:07:00,53.2,48.5,29.20,South,180,0.0,0.0,84,0.00,CLR,SKC,0.00,WeatherDisplay:10.37,2013-04-27 08:07:00,
2013-04-27 04:12:00,53.1,48.4,29.20,South,180,0.0,0.0,84,0.00,CLR,SKC,0.00,WeatherDisplay:10.37,2013-04-27 08:12:00,
2013-04-27 04:17:00,53.1,48.7,29.20,South,180,1.1,0.0,85,0.00,CLR,SKC,0.00,WeatherDisplay:10.37,2013-04-27 08:17:00,
2013-04-27 04:22:00,53.1,48.7,29.20,SW,225,1.1,0.0,85,0.00,CLR,SKC,0.00,WeatherDisplay:10.37,2013-04-27 08:22:00,
2013-04-27 04:27:00,53.1,49.0,29.20,SW,225,0.0,0.0,86,0.00,CLR,SKC,0.00,WeatherDisplay:10.37,2013-04-27 08:27:00,
2013-04-27 04:32:00,53.2,49.2,29.20,NW,315,0.0,0.0,86,0.00,CLR,SKC,0.00,WeatherDisplay:10.37,2013-04-27 08:32:00,
2013-04-27 04:37:00,53.2,49.2,29.21,NE,45,0.0,0.0,86,0.00,CLR,SKC,0.00,WeatherDisplay:10.37,2013-04-27 08:37:00,
2013-04-27 04:42:00,53.2,49.2,29.21,South,180,0.0,0.0,86,0.00,CLR,SKC,0.00,WeatherDisplay:10.37,2013-04-27 08:42:00,
2013-04-27 04:47:00,53.1,49.0,29.21,South,180,0.0,0.0,86,0.00,CLR,SKC,0.00,WeatherDisplay:10.37,2013-04-27 08:47:00,
2013-04-27 04:52:00,53.1,49.0,29.21,South,180,0.0,0.0,86,0.00,CLR,SKC,0.00,WeatherDisplay:10.37,2013-04-27 08:52:00,
2013-04-27 04:57:00,53.1,49.3,29.21,SW,225,0.0,0.0,87,0.00,CLR,SKC,0.00,WeatherDisplay:10.37,2013-04-27 08:57:00,
2013-04-27 05:02:00,53.1,49.0,29.21,South,180,0.0,0.0,86,0.00,CLR,SKC,0.00,WeatherDisplay:10.37,2013-04-27 09:02:00,
2013-04-27 05:07:00,53.1,49.0,29.21,South,180,0.0,0.0,86,0.00,CLR,SKC,0.00,WeatherDisplay:10.37,2013-04-27 09:07:00,
2013-04-27 05:12:00,52.9,48.8,29.21,South,180,1.1,0.0,86,0.00,CLR,SKC,0.00,WeatherDisplay:10.37,2013-04-27 09:12:00,
2013-04-27 05:17:00,52.9,48.8,29.21,NE,45,0.0,0.0,86,0.00,CLR,SKC,0.00,WeatherDisplay:10.37,2013-04-27 09:17:00,
2013-04-27 05:22:00,52.9,48.8,29.21,North,0,0.0,0.0,86,0.00,CLR,SKC,0.00,WeatherDisplay:10.37,2013-04-27 09:22:00,
2013-04-27 05:27:00,53.1,49.0,29.21,South,180,0.0,0.0,86,0.00,CLR,SKC,0.00,WeatherDisplay:10.37,2013-04-27 09:27:00,
2013-04-27 05:32:00,53.1,49.0,29.22,North,0,1.1,0.0,86,0.00,CLR,SKC,0.00,WeatherDisplay:10.37,2013-04-27 09:32:00,
2013-04-27 05:37:00,53.1,49.0,29.21,South,180,0.0,0.0,86,0.00,CLR,SKC,0.00,WeatherDisplay:10.37,2013-04-27 09:37:00,
2013-04-27 05:42:00,53.1,49.0,29.21,South,180,0.0,0.0,86,0.00,CLR,SKC,0.00,WeatherDisplay:10.37,2013-04-27 09:42:00,
2013-04-27 05:47:00,53.1,49.0,29.22,South,180,0.0,0.0,86,0.00,CLR,SKC,0.00,WeatherDisplay:10.37,2013-04-27 09:47:00,
2013-04-27 05:52:00,53.1,49.0,29.21,South,180,0.0,0.0,86,0.00,CLR,SKC,0.00,WeatherDisplay:10.37,2013-04-27 09:52:00,
2013-04-27 05:57:00,52.9,49.1,29.21,NNE,22,1.1,0.0,87,0.00,CLR,SKC,0.00,WeatherDisplay:10.37,2013-04-27 09:57:00,
2013-04-27 06:02:00,52.9,49.1,29.21,NNE,22,1.1,0.0,87,0.00,CLR,SKC,0.00,WeatherDisplay:10.37,2013-04-27 10:02:00,
2013-04-27 06:07:00,52.9,49.1,29.21,NNE,22,1.1,0.0,87,0.00,CLR,SKC,0.00,WeatherDisplay:10.37,2013-04-27 10:07:00,
2013-04-27 06:12:00,52.9,48.8,29.21,South,180,0.0,0.0,86,0.00,CLR,SKC,0.00,WeatherDisplay:10.37,2013-04-27 10:12:00,
2013-04-27 06:17:00,52.9,49.1,29.21,South,180,0.0,0.0,87,0.00,CLR,SKC,0.00,WeatherDisplay:10.37,2013-04-27 10:17:00,
2013-04-27 06:22:00,52.9,49.1,29.22,South,180,0.0,0.0,87,0.00,CLR,SKC,0.00,WeatherDisplay:10.37,2013-04-27 10:22:00,
2013-04-27 06:27:00,52.9,48.8,29.22,South,180,0.0,0.0,86,0.00,CLR,SKC,0.00,WeatherDisplay:10.37,2013-04-27 10:27:00,
2013-04-27 06:32:00,52.9,48.8,29.22,South,180,1.1,0.0,86,0.00,CLR,SKC,0.00,WeatherDisplay:10.37,2013-04-27 10:32:00,
2013-04-27 06:37:00,52.9,48.8,29.22,South,180,1.1,0.0,86,0.00,CLR,SKC,0.00,WeatherDisplay:10.37,2013-04-27 10:37:00,
2013-04-27 06:42:00,52.9,48.8,29.23,South,180,1.1,0.0,86,0.00,CLR,SKC,0.00,WeatherDisplay:10.37,2013-04-27 10:42:00,
2013-04-27 06:47:00,52.9,48.8,29.23,East,90,1.1,0.0,86,0.00,CLR,SKC,0.00,WeatherDisplay:10.37,2013-04-27 10:47:00,
2013-04-27 06:52:00,52.7,48.6,29.23,East,90,1.1,0.0,86,0.00,CLR,SKC,0.00,WeatherDisplay:10.37,2013-04-27 10:52:00,
2013-04-27 06:57:00,52.7,48.9,29.23,East,90,0.0,0.0,87,0.00,CLR,SKC,0.00,WeatherDisplay:10.37,2013-04-27 10:57:00,
2013-04-27 07:02:00,52.5,48.8,29.23,East,90,0.0,0.0,87,0.00,CLR,SKC,0.00,WeatherDisplay:10.37,2013-04-27 11:02:00,
2013-04-27 07:07:00,52.5,49.1,29.22,South,180,0.0,0.0,88,0.00,CLR,SKC,0.00,WeatherDisplay:10.37,2013-04-27 11:07:00,
2013-04-27 07:12:00,52.5,49.1,29.23,South,180,1.1,0.0,88,0.00,CLR,SKC,0.00,WeatherDisplay:10.37,2013-04-27 11:12:00,
2013-04-27 07:17:00,52.5,49.1,29.22,South,180,1.1,0.0,88,0.00,CLR,SKC,0.00,WeatherDisplay:10.37,2013-04-27 11:17:00,
2013-04-27 07:22:00,52.5,49.1,29.23,North,0,0.0,0.0,88,0.00,CLR,SKC,0.00,WeatherDisplay:10.37,2013-04-27 11:22:00,
2013-04-27 07:27:00,52.5,48.8,29.23,North,0,0.0,0.0,87,0.00,CLR,SKC,0.00,WeatherDisplay:10.37,2013-04-27 11:27:00,
2013-04-27 07:32:00,52.5,48.8,29.22,SE,135,0.0,0.0,87,0.00,CLR,SKC,0.00,WeatherDisplay:10.37,2013-04-27 11:32:00,
2013-04-27 07:37:00,52.7,48.9,29.23,South,180,4.6,0.0,87,0.00,CLR,SKC,0.00,WeatherDisplay:10.37,2013-04-27 11:37:00,
2013-04-27 07:42:00,52.9,48.8,29.23,North,0,0.0,0.0,86,0.00,CLR,SKC,0.00,WeatherDisplay:10.37,2013-04-27 11:42:00,
2013-04-27 07:47:00,52.9,48.5,29.23,North,0,1.1,0.0,85,0.00,CLR,SKC,0.00,WeatherDisplay:10.37,2013-04-27 11:47:00,
2013-04-27 07:52:00,52.9,48.2,29.24,North,0,1.1,0.0,84,0.00,CLR,SKC,0.00,WeatherDisplay:10.37,2013-04-27 11:52:00,
2013-04-27 07:57:00,53.1,48.0,29.23,NW,315,0.0,0.0,83,0.00,CLR,SKC,0.00,WeatherDisplay:10.37,2013-04-27 11:57:00,
2013-04-27 08:02:00,53.1,48.0,29.24,North,0,0.0,0.0,83,0.00,CLR,SKC,0.00,WeatherDisplay:10.37,2013-04-27 12:02:00,
2013-04-27 08:07:00,53.2,47.9,29.24,South,180,0.0,0.0,82,0.00,CLR,SKC,0.00,WeatherDisplay:10.37,2013-04-27 12:07:00,
2013-04-27 08:12:00,53.2,47.9,29.24,South,180,0.0,0.0,82,0.00,CLR,SKC,0.00,WeatherDisplay:10.37,2013-04-27 12:12:00,
2013-04-27 08:17:00,53.4,47.7,29.25,South,180,0.0,0.0,81,0.00,CLR,SKC,0.00,WeatherDisplay:10.37,2013-04-27 12:17:00,
2013-04-27 08:22:00,53.6,47.9,29.25,South,180,1.1,0.0,81,0.00,CLR,SKC,0.00,WeatherDisplay:10.37,2013-04-27 12:22:00,
2013-04-27 08:27:00,53.6,47.9,29.25,South,180,0.0,0.0,81,0.00,CLR,SKC,0.00,WeatherDisplay:10.37,2013-04-27 12:27:00,
2013-04-27 08:32:00,53.8,48.1,29.25,South,180,0.0,0.0,81,0.00,CLR,SKC,0.00,WeatherDisplay:10.37,2013-04-27 12:32:00,
2013-04-27 08:37:00,53.8,48.1,29.25,South,180,0.0,0.0,81,0.00,CLR,SKC,0.00,WeatherDisplay:10.37,2013-04-27 12:37:00,
2013-04-27 08:42:00,54.0,48.3,29.25,South,180,0.0,0.0,81,0.00,CLR,SKC,0.00,WeatherDisplay:10.37,2013-04-27 12:42:00,
2013-04-27 08:47:00,54.1,48.4,29.25,South,180,0.0,0.0,81,0.00,CLR,SKC,0.00,WeatherDisplay:10.37,2013-04-27 12:47:00,
2013-04-27 08:52:00,54.1,48.4,29.25,South,180,1.1,0.0,81,0.00,CLR,SKC,0.00,WeatherDisplay:10.37,2013-04-27 12:52:00,
2013-04-27 08:57:00,54.5,48.8,29.25,South,180,1.1,0.0,81,0.00,CLR,SKC,0.00,WeatherDisplay:10.37,2013-04-27 12:57:00,
2013-04-27 09:03:00,54.5,48.8,29.25,South,180,1.1,0.0,81,0.00,CLR,SKC,0.00,WeatherDisplay:10.37,2013-04-27 13:03:00,
2013-04-27 09:08:00,54.7,48.6,29.25,North,0,1.1,0.0,80,0.00,CLR,SKC,0.00,WeatherDisplay:10.37,2013-04-27 13:08:00,
2013-04-27 09:13:00,54.9,48.5,29.25,South,180,0.0,0.0,79,0.00,CLR,SKC,0.00,WeatherDisplay:10.37,2013-04-27 13:13:00,
2013-04-27 09:18:00,55.0,48.6,29.25,South,180,0.0,0.0,79,0.00,CLR,SKC,0.00,WeatherDisplay:10.37,2013-04-27 13:18:00,
2013-04-27 09:23:00,55.2,48.8,29.25,South,180,0.0,0.0,79,0.00,CLR,SKC,0.00,WeatherDisplay:10.37,2013-04-27 13:23:00,
2013-04-27 09:28:00,55.4,49.0,29.24,South,180,0.0,0.0,79,0.00,CLR,SKC,0.00,WeatherDisplay:10.37,2013-04-27 13:28:00,
2013-04-27 09:33:00,55.8,49.7,29.24,South,180,0.0,0.0,80,0.00,CLR,SKC,0.00,WeatherDisplay:10.37,2013-04-27 13:33:00,
2013-04-27 09:38:00,55.9,49.5,29.24,South,180,0.0,0.0,79,0.00,CLR,SKC,0.00,WeatherDisplay:10.37,2013-04-27 13:38:00,
2013-04-27 09:43:00,56.1,49.7,29.24,North,0,1.1,0.0,79,0.00,CLR,SKC,0.00,WeatherDisplay:10.37,2013-04-27 13:43:00,
2013-04-27 09:48:00,56.3,49.5,29.24,North,0,0.0,0.0,78,0.00,CLR,SKC,0.00,WeatherDisplay:10.37,2013-04-27 13:48:00,
2013-04-27 09:53:00,56.7,48.8,29.24,North,0,1.1,0.0,75,0.00,CLR,SKC,0.00,WeatherDisplay:10.37,2013-04-27 13:53:00,
2013-04-27 09:58:00,56.8,49.0,29.24,North,0,1.1,0.0,75,0.00,CLR,SKC,0.00,WeatherDisplay:10.37,2013-04-27 13:58:00,
2013-04-27 10:03:00,57.0,49.2,29.24,North,0,0.0,0.0,75,0.00,CLR,SKC,0.00,WeatherDisplay:10.37,2013-04-27 14:03:00,
2013-04-27 10:08:00,57.2,49.3,29.25,North,0,0.0,0.0,75,0.00,CLR,SKC,0.00,WeatherDisplay:10.37,2013-04-27 14:08:00,
2013-04-27 10:13:00,57.4,49.5,29.25,North,0,0.0,0.0,75,0.00,CLR,SKC,0.00,WeatherDisplay:10.37,2013-04-27 14:13:00,
2013-04-27 10:18:00,57.7,49.9,29.25,North,0,0.0,0.0,75,0.00,CLR,SKC,0.00,WeatherDisplay:10.37,2013-04-27 14:18:00,
2013-04-27 10:23:00,57.7,49.5,29.24,North,0,0.0,0.0,74,0.00,CLR,SKC,0.00,WeatherDisplay:10.37,2013-04-27 14:23:00,
2013-04-27 10:28:00,57.9,49.3,29.24,South,180,0.0,0.0,73,0.00,CLR,SKC,0.00,WeatherDisplay:10.37,2013-04-27 14:28:00,
2013-04-27 10:33:00,58.1,49.9,29.24,South,180,1.1,0.0,74,0.00,CLR,SKC,0.00,WeatherDisplay:10.37,2013-04-27 14:33:00,
2013-04-27 10:38:00,58.3,50.0,29.25,NE,45,1.1,0.0,74,0.00,CLR,SKC,0.00,WeatherDisplay:10.37,2013-04-27 14:38:00,
2013-04-27 10:43:00,58.3,49.3,29.25,North,0,0.0,0.0,72,0.00,CLR,SKC,0.00,WeatherDisplay:10.37,2013-04-27 14:43:00,
2013-04-27 10:48:00,58.5,49.1,29.25,North,0,0.0,0.0,71,0.00,CLR,SKC,0.00,WeatherDisplay:10.37,2013-04-27 14:48:00,
2013-04-27 10:53:00,58.5,49.1,29.25,North,0,1.1,0.0,71,0.00,CLR,SKC,0.00,WeatherDisplay:10.37,2013-04-27 14:53:00,
2013-04-27 10:58:00,58.5,49.1,29.25,North,0,1.1,0.0,71,0.00,CLR,SKC,0.00,WeatherDisplay:10.37,2013-04-27 14:58:00,
2013-04-27 11:03:00,58.5,49.1,29.25,North,0,1.1,0.0,71,0.00,CLR,SKC,0.00,WeatherDisplay:10.37,2013-04-27 15:03:00,
2013-04-27 11:08:00,58.5,49.1,29.25,SE,135,1.1,0.0,71,0.00,CLR,SKC,0.00,WeatherDisplay:10.37,2013-04-27 15:08:00,
2013-04-27 11:13:00,58.6,50.0,29.24,SW,225,1.1,0.0,73,0.00,CLR,SKC,0.00,WeatherDisplay:10.37,2013-04-27 15:13:00,
2013-04-27 11:18:00,58.8,50.2,29.24,South,180,1.1,0.0,73,0.00,CLR,SKC,0.00,WeatherDisplay:10.37,2013-04-27 15:18:00,
2013-04-27 11:23:00,59.0,49.6,29.24,NW,315,0.0,0.0,71,0.00,CLR,SKC,0.00,WeatherDisplay:10.37,2013-04-27 15:23:00,
2013-04-27 11:28:00,59.2,49.0,29.24,South,180,0.0,0.0,69,0.00,CLR,SKC,0.00,WeatherDisplay:10.37,2013-04-27 15:28:00,
2013-04-27 11:33:00,59.4,49.2,29.24,South,180,0.0,0.0,69,0.00,CLR,SKC,0.00,WeatherDisplay:10.37,2013-04-27 15:33:00,
2013-04-27 11:38:00,59.5,49.4,29.24,North,0,1.1,0.0,69,0.00,CLR,SKC,0.00,WeatherDisplay:10.37,2013-04-27 15:38:00,
2013-04-27 11:43:00,59.5,49.0,29.24,North,0,1.1,0.0,68,0.00,CLR,SKC,0.00,WeatherDisplay:10.37,2013-04-27 15:43:00,
2013-04-27 11:48:00,59.9,49.3,29.24,South,180,0.0,0.0,68,0.00,CLR,SKC,0.00,WeatherDisplay:10.37,2013-04-27 15:48:00,
2013-04-27 11:53:00,60.4,50.2,29.24,South,180,0.0,0.0,69,0.00,CLR,SKC,0.00,WeatherDisplay:10.37,2013-04-27 15:53:00,
2013-04-27 11:58:00,61.0,49.9,29.24,South,180,0.0,0.0,67,0.00,CLR,SKC,0.00,WeatherDisplay:10.37,2013-04-27 15:58:00,
2013-04-27 12:03:00,61.7,50.6,29.23,West,270,0.0,0.0,67,0.00,CLR,SKC,0.00,WeatherDisplay:10.37,2013-04-27 16:03:00,
2013-04-27 12:08:00,63.0,51.0,29.23,East,90,3.5,0.0,65,0.00,CLR,SKC,0.00,WeatherDisplay:10.37,2013-04-27 16:08:00,
2013-04-27 12:14:00,63.7,50.8,29.23,North,0,0.0,0.0,63,0.00,CLR,SKC,0.00,WeatherDisplay:10.37,2013-04-27 16:14:00,
2013-04-27 12:19:00,63.7,50.8,29.23,North,0,0.0,0.0,63,0.00,CLR,SKC,0.00,WeatherDisplay:10.37,2013-04-27 16:19:00,
2013-04-27 12:24:00,63.5,50.7,29.22,North,0,0.0,0.0,63,0.00,CLR,SKC,0.00,WeatherDisplay:10.37,2013-04-27 16:24:00,
2013-04-27 12:29:00,64.6,52.1,29.22,SE,135,0.0,0.0,64,0.00,CLR,SKC,0.00,WeatherDisplay:10.37,2013-04-27 16:29:00,
2013-04-27 12:34:00,64.6,50.8,29.21,SW,225,1.1,0.0,61,0.00,CLR,SKC,0.00,WeatherDisplay:10.37,2013-04-27 16:34:00,
2013-04-27 12:39:00,64.8,51.0,29.21,South,180,0.0,0.0,61,0.00,CLR,SKC,0.00,WeatherDisplay:10.37,2013-04-27 16:39:00,
2013-04-27 12:44:00,64.8,51.9,29.21,SE,135,0.0,0.0,63,0.00,CLR,SKC,0.00,WeatherDisplay:10.37,2013-04-27 16:44:00,
2013-04-27 12:49:00,64.8,51.4,29.20,North,0,0.0,0.0,62,0.00,CLR,SKC,0.00,WeatherDisplay:10.37,2013-04-27 16:49:00,
2013-04-27 12:54:00,64.4,50.7,29.21,North,0,0.0,0.0,61,0.00,CLR,SKC,0.00,WeatherDisplay:10.37,2013-04-27 16:54:00,
2013-04-27 12:59:00,64.2,51.4,29.21,NE,45,0.0,0.0,63,0.00,CLR,SKC,0.00,WeatherDisplay:10.37,2013-04-27 16:59:00,
2013-04-27 13:04:00,64.0,51.2,29.20,NE,45,0.0,0.0,63,0.00,CLR,SKC,0.00,WeatherDisplay:10.37,2013-04-27 17:04:00,
2013-04-27 13:09:00,63.7,50.8,29.20,NW,315,0.0,0.0,63,0.00,CLR,SKC,0.00,WeatherDisplay:10.37,2013-04-27 17:09:00,
2013-04-27 13:14:00,63.5,51.1,29.20,North,0,0.0,0.0,64,0.00,CLR,SKC,0.00,WeatherDisplay:10.37,2013-04-27 17:14:00,
2013-04-27 13:19:00,63.5,51.1,29.20,North,0,0.0,0.0,64,0.00,CLR,SKC,0.00,WeatherDisplay:10.37,2013-04-27 17:19:00,
2013-04-27 13:24:00,63.3,51.3,29.20,North,0,1.1,0.0,65,0.00,CLR,SKC,0.00,WeatherDisplay:10.37,2013-04-27 17:24:00,
2013-04-27 13:29:00,63.1,50.8,29.20,North,0,1.1,0.0,64,0.00,CLR,SKC,0.00,WeatherDisplay:10.37,2013-04-27 17:29:00,
2013-04-27 13:34:00,62.8,50.4,29.20,North,0,0.0,0.0,64,0.00,CLR,SKC,0.00,WeatherDisplay:10.37,2013-04-27 17:34:00,
2013-04-27 13:39:00,62.6,51.1,29.20,West,270,1.1,0.0,66,0.00,CLR,SKC,0.00,WeatherDisplay:10.37,2013-04-27 17:39:00,
2013-04-27 13:44:00,62.6,51.1,29.20,North,0,0.0,0.0,66,0.00,CLR,SKC,0.00,WeatherDisplay:10.37,2013-04-27 17:44:00,
2013-04-27 13:49:00,62.4,50.9,29.20,North,0,0.0,0.0,66,0.00,CLR,SKC,0.00,WeatherDisplay:10.37,2013-04-27 17:49:00,
2013-04-27 13:54:00,62.2,51.1,29.20,North,0,1.1,0.0,67,0.00,CLR,SKC,0.00,WeatherDisplay:10.37,2013-04-27 17:54:00,
2013-04-27 13:59:00,62.1,52.2,29.20,North,0,1.1,0.0,70,0.00,CLR,SKC,0.00,WeatherDisplay:10.37,2013-04-27 17:59:00,
2013-04-27 14:04:00,61.9,52.8,29.20,South,180,1.1,0.0,72,0.00,CLR,SKC,0.00,WeatherDisplay:10.37,2013-04-27 18:04:00,
2013-04-27 14:09:00,61.5,52.4,29.21,South,180,1.1,0.0,72,0.00,CLR,SKC,0.00,WeatherDisplay:10.37,2013-04-27 18:09:00,
2013-04-27 14:14:00,61.3,52.6,29.21,SW,225,0.0,0.0,73,0.00,CLR,SKC,0.00,WeatherDisplay:10.37,2013-04-27 18:14:00,
2013-04-27 14:19:00,61.2,52.8,29.21,NE,45,0.0,0.0,74,0.00,CLR,SKC,0.00,WeatherDisplay:10.37,2013-04-27 18:19:00,
2013-04-27 14:24:00,61.0,53.4,29.21,North,0,0.0,0.0,76,0.00,CLR,SKC,0.00,WeatherDisplay:10.37,2013-04-27 18:24:00,
2013-04-27 14:29:00,60.1,52.8,29.21,North,0,0.0,0.0,77,0.00,CLR,SKC,0.00,WeatherDisplay:10.37,2013-04-27 18:29:00,
2013-04-27 14:34:00,59.7,52.8,29.21,NE,45,0.0,0.0,78,0.00,CLR,SKC,0.00,WeatherDisplay:10.37,2013-04-27 18:34:00,
2013-04-27 14:39:00,59.7,53.2,29.21,NE,45,0.0,0.0,79,0.00,CLR,SKC,0.00,WeatherDisplay:10.37,2013-04-27 18:39:00,
2013-04-27 14:44:00,59.7,53.9,29.21,North,0,0.0,0.0,81,0.00,CLR,SKC,0.00,WeatherDisplay:10.37,2013-04-27 18:44:00,
2013-04-27 14:49:00,59.7,54.5,29.20,North,0,0.0,0.0,83,0.00,CLR,SKC,0.00,WeatherDisplay:10.37,2013-04-27 18:49:00,
2013-04-27 14:54:00,60.3,54.7,29.20,South,180,1.1,0.0,82,0.00,CLR,SKC,0.00,WeatherDisplay:10.37,2013-04-27 18:54:00,
2013-04-27 14:59:00,60.4,54.6,29.20,North,0,1.1,0.0,81,0.00,CLR,SKC,0.00,WeatherDisplay:10.37,2013-04-27 18:59:00,
2013-04-27 15:04:00,60.4,53.9,29.20,South,180,1.1,0.0,79,0.00,CLR,SKC,0.00,WeatherDisplay:10.37,2013-04-27 19:04:00,
2013-04-27 15:09:00,60.3,53.0,29.20,NE,45,0.0,0.0,77,0.00,CLR,SKC,0.00,WeatherDisplay:10.37,2013-04-27 19:09:00,
2013-04-27 15:14:00,59.9,53.4,29.20,NE,45,1.1,0.0,79,0.00,CLR,SKC,0.00,WeatherDisplay:10.37,2013-04-27 19:14:00,
2013-04-27 15:19:00,59.7,53.9,29.20,South,180,0.0,0.0,81,0.00,CLR,SKC,0.00,WeatherDisplay:10.37,2013-04-27 19:19:00,
2013-04-27 15:24:00,59.5,53.4,29.20,South,180,1.1,0.0,80,0.00,CLR,SKC,0.00,WeatherDisplay:10.37,2013-04-27 19:24:00,
2013-04-27 15:29:00,59.4,53.5,29.20,South,180,0.0,0.0,81,0.00,CLR,SKC,0.00,WeatherDisplay:10.37,2013-04-27 19:29:00,
2013-04-27 15:34:00,59.4,52.8,29.19,South,180,0.0,0.0,79,0.00,CLR,SKC,0.00,WeatherDisplay:10.37,2013-04-27 19:34:00,
2013-04-27 15:39:00,59.5,52.7,29.19,South,180,1.1,0.0,78,0.00,CLR,SKC,0.00,WeatherDisplay:10.37,2013-04-27 19:39:00,
2013-04-27 15:44:00,59.5,52.7,29.19,South,180,0.0,0.0,78,0.00,CLR,SKC,0.00,WeatherDisplay:10.37,2013-04-27 19:44:00,
2013-04-27 15:49:00,59.7,53.5,29.19,South,180,0.0,0.0,80,0.00,CLR,SKC,0.00,WeatherDisplay:10.37,2013-04-27 19:49:00,
2013-04-27 15:54:00,59.7,53.9,29.19,South,180,1.1,0.0,81,0.00,CLR,SKC,0.00,WeatherDisplay:10.37,2013-04-27 19:54:00,
2013-04-27 15:59:00,59.7,53.5,29.19,SE,135,1.1,0.0,80,0.00,CLR,SKC,0.00,WeatherDisplay:10.37,2013-04-27 19:59:00,
2013-04-27 16:04:00,59.7,53.5,29.19,SE,135,0.0,0.0,80,0.00,CLR,SKC,0.00,WeatherDisplay:10.37,2013-04-27 20:04:00,
2013-04-27 16:09:00,59.9,53.7,29.19,SE,135,0.0,0.0,80,0.00,CLR,SKC,0.00,WeatherDisplay:10.37,2013-04-27 20:09:00,
2013-04-27 16:14:00,59.7,53.5,29.19,SE,135,0.0,0.0,80,0.00,CLR,SKC,0.00,WeatherDisplay:10.37,2013-04-27 20:14:00,
2013-04-27 16:19:00,59.5,54.0,29.19,SE,135,1.1,0.0,82,0.00,CLR,SKC,0.00,WeatherDisplay:10.37,2013-04-27 20:19:00,
2013-04-27 16:24:00,59.5,54.4,29.19,North,0,1.1,0.0,83,0.01,RA,SKC,0.01,WeatherDisplay:10.37,2013-04-27 20:24:00,
2013-04-27 16:29:00,59.4,54.2,29.19,North,0,1.1,0.0,83,0.01,RA,SKC,0.01,WeatherDisplay:10.37,2013-04-27 20:29:00,
2013-04-27 16:34:00,59.2,54.7,29.19,South,180,1.1,0.0,85,0.01,CLR,SKC,0.01,WeatherDisplay:10.37,2013-04-27 20:34:00,
2013-04-27 16:39:00,59.2,55.0,29.19,North,0,0.0,0.0,86,0.01,CLR,SKC,0.01,WeatherDisplay:10.37,2013-04-27 20:39:00,
2013-04-27 16:44:00,59.0,54.8,29.19,North,0,1.1,0.0,86,0.01,CLR,SKC,0.01,WeatherDisplay:10.37,2013-04-27 20:44:00,
2013-04-27 16:49:00,58.6,54.5,29.19,NW,315,0.0,0.0,86,0.01,CLR,SKC,0.01,WeatherDisplay:10.37,2013-04-27 20:49:00,
2013-04-27 16:54:00,58.5,54.3,29.20,NE,45,1.1,0.0,86,0.02,RA,SKC,0.02,WeatherDisplay:10.37,2013-04-27 20:54:00,
2013-04-27 16:59:00,58.1,54.6,29.19,North,0,0.0,0.0,88,0.02,RA,SKC,0.02,WeatherDisplay:10.37,2013-04-27 20:59:00,
2013-04-27 17:04:00,58.1,54.9,29.19,North,0,1.1,0.0,89,0.02,CLR,SKC,0.02,WeatherDisplay:10.37,2013-04-27 21:04:00,
2013-04-27 17:09:00,57.9,55.0,29.18,NW,315,1.1,0.0,90,0.02,CLR,SKC,0.02,WeatherDisplay:10.37,2013-04-27 21:09:00,
2013-04-27 17:14:00,57.7,55.1,29.18,East,90,0.0,0.0,91,0.02,CLR,SKC,0.02,WeatherDisplay:10.37,2013-04-27 21:14:00,
2013-04-27 17:19:00,57.7,55.1,29.18,SE,135,1.1,0.0,91,0.04,RA,SKC,0.04,WeatherDisplay:10.37,2013-04-27 21:19:00,
2013-04-27 17:24:00,57.7,55.4,29.17,SE,135,1.1,0.0,92,0.02,RA,SKC,0.04,WeatherDisplay:10.37,2013-04-27 21:24:00,
2013-04-27 17:29:00,57.6,55.8,29.16,South,180,0.0,0.0,94,0.02,CLR,SKC,0.04,WeatherDisplay:10.37,2013-04-27 21:29:00,
2013-04-27 17:34:00,57.6,55.8,29.15,South,180,1.1,0.0,94,0.02,CLR,SKC,0.04,WeatherDisplay:10.37,2013-04-27 21:34:00,
2013-04-27 17:39:00,57.6,56.1,29.16,South,180,1.1,0.0,95,0.04,RA,SKC,0.05,WeatherDisplay:10.37,2013-04-27 21:39:00,
2013-04-27 17:44:00,57.7,56.3,29.16,South,180,0.0,0.0,95,0.04,RA,SKC,0.05,WeatherDisplay:10.37,2013-04-27 21:44:00,
2013-04-27 17:50:00,57.9,56.5,29.16,South,180,0.0,0.0,95,0.04,CLR,SKC,0.05,WeatherDisplay:10.37,2013-04-27 21:50:00,
2013-04-27 17:55:00,57.7,56.3,29.16,North,0,1.1,0.0,95,0.02,CLR,SKC,0.05,WeatherDisplay:10.37,2013-04-27 21:55:00,
2013-04-27 18:00:00,57.6,56.1,29.16,SW,225,1.1,0.0,95,0.02,CLR,SKC,0.05,WeatherDisplay:10.37,2013-04-27 22:00:00,
2013-04-27 18:05:00,57.4,56.0,29.16,North,0,1.1,0.0,95,0.02,CLR,SKC,0.05,WeatherDisplay:10.37,2013-04-27 22:05:00,
2013-04-27 18:10:00,57.2,55.8,29.16,South,180,0.0,0.0,95,0.02,CLR,SKC,0.05,WeatherDisplay:10.37,2013-04-27 22:10:00,
2013-04-27 18:15:00,57.0,55.6,29.16,East,90,1.1,0.0,95,0.02,CLR,SKC,0.05,WeatherDisplay:10.37,2013-04-27 22:15:00,
2013-04-27 18:20:00,56.8,55.4,29.17,NE,45,0.0,0.0,95,0.01,CLR,SKC,0.05,WeatherDisplay:10.37,2013-04-27 22:20:00,
2013-04-27 18:25:00,56.8,55.4,29.17,North,0,1.1,0.0,95,0.01,CLR,SKC,0.05,WeatherDisplay:10.37,2013-04-27 22:25:00,
2013-04-27 18:30:00,56.8,55.4,29.17,SW,225,1.1,0.0,95,0.01,CLR,SKC,0.05,WeatherDisplay:10.37,2013-04-27 22:30:00,
2013-04-27 18:35:00,56.7,55.2,29.16,North,0,0.0,0.0,95,0.01,CLR,SKC,0.05,WeatherDisplay:10.37,2013-04-27 22:35:00,
2013-04-27 18:40:00,56.7,55.2,29.17,North,0,1.1,0.0,95,0.00,CLR,SKC,0.05,WeatherDisplay:10.37,2013-04-27 22:40:00,
2013-04-27 18:45:00,56.5,55.4,29.17,North,0,0.0,0.0,96,0.00,CLR,SKC,0.05,WeatherDisplay:10.37,2013-04-27 22:45:00,
2013-04-27 18:50:00,56.5,55.4,29.17,SW,225,0.0,0.0,96,0.00,CLR,SKC,0.05,WeatherDisplay:10.37,2013-04-27 22:50:00,
2013-04-27 18:55:00,56.3,55.2,29.16,NE,45,0.0,0.0,96,0.00,CLR,SKC,0.05,WeatherDisplay:10.37,2013-04-27 22:55:00,
2013-04-27 19:00:00,56.1,55.0,29.16,South,180,0.0,0.0,96,0.00,CLR,SKC,0.05,WeatherDisplay:10.37,2013-04-27 23:00:00,
2013-04-27 19:05:00,55.9,54.8,29.16,South,180,1.1,0.0,96,0.00,CLR,SKC,0.05,WeatherDisplay:10.37,2013-04-27 23:05:00,
2013-04-27 19:10:00,55.8,54.3,29.16,North,0,1.1,0.0,95,0.00,CLR,SKC,0.05,WeatherDisplay:10.37,2013-04-27 23:10:00,
2013-04-27 19:15:00,55.8,54.6,29.16,North,0,1.1,0.0,96,0.00,CLR,SKC,0.05,WeatherDisplay:10.37,2013-04-27 23:15:00,
2013-04-27 19:20:00,55.6,54.5,29.16,SW,225,1.1,0.0,96,0.00,CLR,SKC,0.05,WeatherDisplay:10.37,2013-04-27 23:20:00,
2013-04-27 19:25:00,55.6,54.5,29.17,SW,225,0.0,0.0,96,0.00,CLR,SKC,0.05,WeatherDisplay:10.37,2013-04-27 23:25:00,
2013-04-27 19:30:00,55.4,54.6,29.16,South,180,0.0,0.0,97,0.00,CLR,SKC,0.05,WeatherDisplay:10.37,2013-04-27 23:30:00,
2013-04-27 19:35:00,55.4,54.6,29.17,South,180,0.0,0.0,97,0.00,CLR,SKC,0.05,WeatherDisplay:10.37,2013-04-27 23:35:00,
2013-04-27 19:40:00,55.4,54.6,29.17,North,0,0.0,0.0,97,0.00,CLR,SKC,0.05,WeatherDisplay:10.37,2013-04-27 23:40:00,
2013-04-27 19:45:00,55.2,54.7,29.16,West,270,0.0,0.0,98,0.00,CLR,SKC,0.05,WeatherDisplay:10.37,2013-04-27 23:45:00,
2013-04-27 19:50:00,55.2,54.7,29.16,SW,225,1.1,0.0,98,0.00,CLR,SKC,0.05,WeatherDisplay:10.37,2013-04-27 23:50:00,
2013-04-27 19:55:00,55.0,54.5,29.16,SW,225,1.1,0.0,98,0.00,CLR,SKC,0.05,WeatherDisplay:10.37,2013-04-27 23:55:00,
2013-04-27 20:00:00,55.0,54.5,29.16,North,0,1.1,0.0,98,0.00,CLR,SKC,0.05,WeatherDisplay:10.37,2013-04-28 00:00:00,
2013-04-27 20:05:00,54.9,54.3,29.16,South,180,0.0,0.0,98,0.00,CLR,SKC,0.05,WeatherDisplay:10.37,2013-04-28 00:05:00,
2013-04-27 20:10:00,54.9,54.3,29.16,NE,45,0.0,0.0,98,0.00,CLR,SKC,0.05,WeatherDisplay:10.37,2013-04-28 00:10:00,
2013-04-27 20:15:00,54.7,53.8,29.16,WNW,292,0.0,0.0,97,0.00,CLR,SKC,0.05,WeatherDisplay:10.37,2013-04-28 00:15:00,
2013-04-27 20:20:00,54.7,53.8,29.16,East,90,0.0,0.0,97,0.00,CLR,SKC,0.05,WeatherDisplay:10.37,2013-04-28 00:20:00,
2013-04-27 20:25:00,54.7,53.8,29.16,SE,135,1.1,0.0,97,0.00,CLR,SKC,0.05,WeatherDisplay:10.37,2013-04-28 00:25:00,
2013-04-27 20:30:00,54.7,53.8,29.16,South,180,0.0,0.0,97,0.00,CLR,SKC,0.05,WeatherDisplay:10.37,2013-04-28 00:30:00,
2013-04-27 20:35:00,54.5,53.7,29.16,North,0,1.1,0.0,97,0.00,CLR,SKC,0.05,WeatherDisplay:10.37,2013-04-28 00:35:00,
2013-04-27 20:40:00,54.5,53.7,29.16,SE,135,1.1,0.0,97,0.01,RA,SKC,0.06,WeatherDisplay:10.37,2013-04-28 00:40:00,
2013-04-27 20:45:00,54.5,53.7,29.16,South,180,0.0,0.0,97,0.01,RA,SKC,0.06,WeatherDisplay:10.37,2013-04-28 00:45:00,
2013-04-27 20:50:00,54.5,53.7,29.16,NE,45,1.1,0.0,97,0.01,CLR,SKC,0.06,WeatherDisplay:10.37,2013-04-28 00:50:00,
2013-04-27 20:55:00,54.5,53.7,29.17,South,180,0.0,0.0,97,0.01,CLR,SKC,0.06,WeatherDisplay:10.37,2013-04-28 00:55:00,
2013-04-27 21:00:00,54.3,53.5,29.17,NE,45,1.1,0.0,97,0.01,CLR,SKC,0.06,WeatherDisplay:10.37,2013-04-28 01:00:00,
2013-04-27 21:05:00,54.3,53.5,29.17,SW,225,0.0,0.0,97,0.01,CLR,SKC,0.06,WeatherDisplay:10.37,2013-04-28 01:05:00,
2013-04-27 21:10:00,54.3,53.5,29.17,SE,135,0.0,0.0,97,0.01,CLR,SKC,0.06,WeatherDisplay:10.37,2013-04-28 01:10:00,
2013-04-27 21:15:00,54.3,53.5,29.17,North,0,0.0,0.0,97,0.01,CLR,SKC,0.06,WeatherDisplay:10.37,2013-04-28 01:15:00,
2013-04-27 21:20:00,54.3,53.5,29.17,North,11,0.0,1.0,97,0.00,CLR,SKC,0.06,WeatherDisplay:10.37,2013-04-28 01:20:00,
2013-04-27 21:25:00,54.3,53.5,29.17,SE,135,0.0,0.0,97,0.01,CLR,SKC,0.06,WeatherDisplay:10.37,2013-04-28 01:25:00,
2013-04-27 21:30:00,54.1,53.3,29.17,SW,225,0.0,0.0,97,0.01,CLR,SKC,0.06,WeatherDisplay:10.37,2013-04-28 01:30:00,
2013-04-27 21:35:00,54.1,53.3,29.16,South,180,1.1,0.0,97,0.02,RA,SKC,0.07,WeatherDisplay:10.37,2013-04-28 01:35:00,
2013-04-27 21:40:00,54.1,53.3,29.16,South,180,0.0,0.0,97,0.01,RA,SKC,0.07,WeatherDisplay:10.37,2013-04-28 01:40:00,
2013-04-27 21:45:00,54.0,53.1,29.17,SW,225,1.1,0.0,97,0.01,CLR,SKC,0.07,WeatherDisplay:10.37,2013-04-28 01:45:00,
2013-04-27 21:50:00,54.0,53.1,29.17,NE,45,1.1,0.0,97,0.01,CLR,SKC,0.07,WeatherDisplay:10.37,2013-04-28 01:50:00,
2013-04-27 21:55:00,54.0,53.1,29.17,SE,135,1.1,0.0,97,0.01,CLR,SKC,0.07,WeatherDisplay:10.37,2013-04-28 01:55:00,
2013-04-27 22:00:00,54.0,53.1,29.17,South,180,1.1,0.0,97,0.01,CLR,SKC,0.07,WeatherDisplay:10.37,2013-04-28 02:00:00,
2013-04-27 22:05:00,54.0,53.1,29.18,North,0,1.1,0.0,97,0.01,CLR,SKC,0.07,WeatherDisplay:10.37,2013-04-28 02:05:00,
2013-04-27 22:10:00,53.8,52.9,29.17,SE,135,1.1,0.0,97,0.01,CLR,SKC,0.07,WeatherDisplay:10.37,2013-04-28 02:10:00,
2013-04-27 22:15:00,53.8,52.9,29.18,North,0,0.0,0.0,97,0.01,CLR,SKC,0.07,WeatherDisplay:10.37,2013-04-28 02:15:00,
2013-04-27 22:20:00,53.8,52.9,29.18,North,0,1.1,0.0,97,0.01,CLR,SKC,0.07,WeatherDisplay:10.37,2013-04-28 02:20:00,
2013-04-27 22:25:00,53.8,52.9,29.18,North,0,1.1,0.0,97,0.01,CLR,SKC,0.07,WeatherDisplay:10.37,2013-04-28 02:25:00,
2013-04-27 22:30:00,53.8,52.9,29.18,North,0,1.1,0.0,97,0.01,CLR,SKC,0.07,WeatherDisplay:10.37,2013-04-28 02:30:00,
2013-04-27 22:35:00,53.8,52.9,29.17,North,0,1.1,0.0,97,0.00,CLR,SKC,0.07,WeatherDisplay:10.37,2013-04-28 02:35:00,
2013-04-27 22:40:00,53.8,52.9,29.17,North,0,0.0,0.0,97,0.00,CLR,SKC,0.07,WeatherDisplay:10.37,2013-04-28 02:40:00,
2013-04-27 22:45:00,53.8,52.9,29.17,North,0,0.0,0.0,97,0.01,RA,SKC,0.08,WeatherDisplay:10.37,2013-04-28 02:45:00,
2013-04-27 22:50:00,53.6,52.8,29.17,North,0,0.0,0.0,97,0.01,RA,SKC,0.08,WeatherDisplay:10.37,2013-04-28 02:50:00,
2013-04-27 22:55:00,53.6,52.8,29.17,North,0,0.0,0.0,97,0.01,CLR,SKC,0.08,WeatherDisplay:10.37,2013-04-28 02:55:00,
2013-04-27 23:00:00,53.6,52.8,29.16,North,0,0.0,0.0,97,0.01,CLR,SKC,0.08,WeatherDisplay:10.37,2013-04-28 03:00:00,
2013-04-27 23:05:00,53.6,52.8,29.16,South,180,0.0,0.0,97,0.01,CLR,SKC,0.08,WeatherDisplay:10.37,2013-04-28 03:05:00,
2013-04-27 23:10:00,53.4,52.6,29.16,SE,135,0.0,0.0,97,0.01,CLR,SKC,0.08,WeatherDisplay:10.37,2013-04-28 03:10:00,
2013-04-27 23:15:00,53.4,52.6,29.16,SE,135,0.0,0.0,97,0.01,CLR,SKC,0.08,WeatherDisplay:10.37,2013-04-28 03:15:00,
2013-04-27 23:20:00,53.4,52.6,29.16,SE,135,0.0,0.0,97,0.01,CLR,SKC,0.08,WeatherDisplay:10.37,2013-04-28 03:20:00,
2013-04-27 23:25:00,53.4,52.6,29.16,North,0,0.0,0.0,97,0.01,CLR,SKC,0.08,WeatherDisplay:10.37,2013-04-28 03:25:00,
2013-04-27 23:30:00,53.4,52.6,29.16,North,0,1.1,0.0,97,0.01,CLR,SKC,0.08,WeatherDisplay:10.37,2013-04-28 03:30:00,
2013-04-27 23:35:00,53.4,52.6,29.15,North,0,1.1,0.0,97,0.01,CLR,SKC,0.08,WeatherDisplay:10.37,2013-04-28 03:35:00,
2013-04-27 23:40:00,53.4,52.6,29.15,North,0,0.0,0.0,97,0.01,CLR,SKC,0.08,WeatherDisplay:10.37,2013-04-28 03:40:00,
2013-04-27 23:45:00,53.4,52.6,29.15,North,0,0.0,0.0,97,0.00,CLR,SKC,0.08,WeatherDisplay:10.37,2013-04-28 03:45:00,
2013-04-27 23:50:00,53.4,52.6,29.15,North,0,0.0,0.0,97,0.00,CLR,SKC,0.08,WeatherDisplay:10.37,2013-04-28 03:50:00,
2013-04-27 23:55:00,53.4,52.6,29.15,North,0,1.1,0.0,97,0.00,CLR,SKC,0.08,WeatherDisplay:10.37,2013-04-28 03:55:00,